Weather Roundup
Issued by NWS Springfield, MO

Current Version | Previous Version | Text Only | Print | Product List | Glossary On
Versions: 1 2 3 4 5 6 7 8 9 10 11 12 13 14 15 16 17 18 19 20 21 22 23 24 25 26 27 28 29 30 31 32 33 34 35 36 37 38 39 40 41 42 43 44 45 46 47 48 49 50
179
NZUS99 KSGF 240807
HRRSGF

HOURLY WEATHER
NATIONAL WEATHER SERVICE SPRINGFIELD MO
200 AM CST TUE JAN 24 2017

......SGF CWA......

CITY           SKY/WX    TMP DP  RH WIND       PRES   REMARKS
SPRINGFIELD    CLEAR     36  31  82 SE10      29.79F WCI  28
JOPLIN         CLEAR     39  33  79 SE9       29.76F WCI  33
WEST PLAINS    CLOUDY    29  26  89 CALM      29.86S
ROLLA          PTCLDY    25  25 100 E5        29.84R FOG     WCI  19
OSAGE BEACH    CLEAR     27  26  96 CALM      29.87R FOG
BRANSON        CLEAR     39  32  75 SE9       29.82S WCI  33

......SURROUNDING SGF CWA......

CITY           SKY/WX    TMP DP  RH WIND       PRES   REMARKS
CHANUTE        CLEAR     39  32  76 E12       29.72F WCI  32
PARSONS        CLEAR     42  33  70 SE6       29.72F
COFFEYVILLE    CLEAR     42  33  70 SE8       29.71F
EMPORIA        CLEAR     34  32  92 E12       29.68F WCI  25
GROVE OK       CLEAR     37  34  87 CALM      29.75F
ROGERS AR      CLEAR     38  35  89 SE9       29.78F WCI  31
SILOAM SPRINGS   N/A    N/A N/A N/A MISG        N/A
HARRISON AR    CLEAR     32  31  96 SE9       29.82S WCI  24
NEAR YELLVILLE PTCLDY    30  27  86 CALM      29.82S

......KANSAS AND MISSOURI......

CITY           SKY/WX    TMP DP  RH WIND       PRES   REMARKS
KANSAS CTY INT CLOUDY    32  28  85 E10       29.79F WCI  24
DOWNTOWN KC    CLEAR     32  30  92 E8        29.81S WCI  25
COLUMBIA       CLOUDY    33  30  88 E6        29.86S WCI  28
SEDALIA        CLEAR     29  27  92 E6        29.86R FOG     WCI  23
ST JOSEPH      CLEAR     30  29  96 E6        29.82S WCI  24
ST LOUIS       CLOUDY    40  31  70 NW3       29.88R
SPIRIT OF STL  CLOUDY    40  34  79 N3        29.87R
KIRKSVILLE     CLOUDY    31  29  92 CALM      29.87R
WICHITA        CLOUDY    42  31  64 SE12      29.59F
TOPEKA         CLEAR     33  29  85 E10       29.75F FOG     WCI  25
OLATHE         CLEAR     32  30  92 E8        29.78F WCI  25

......TENNESSEE......

CITY           SKY/WX    TMP DP  RH WIND       PRES   REMARKS
MEMPHIS        CLEAR     38  36  92 CALM      29.88R
NASHVILLE      CLOUDY    42  33  70 NW7       29.84R

......ARKANSAS.......

CITY           SKY/WX    TMP DP  RH WIND       PRES   REMARKS
FAYETTEVILLE   CLEAR     29  29 100 CALM      29.78F
FT SMITH       CLEAR     39  35  86 E6        29.80S WCI  35
LITTLE ROCK    CLEAR     37  37 100 CALM      29.88S

......OKLAHOMA.......

CITY           SKY/WX    TMP DP  RH WIND       PRES   REMARKS
TULSA          PTCLDY    46  33  60 SE13      29.69F
PONCA CITY     CLOUDY    46  31  55 SE15      29.60F
MCALESTER      PTCLDY    53  30  41 SE6       29.73F
OKLAHOMA CITY  PTCLDY    45  35  68 S12       29.62F

......IOWA............

CITY           SKY/WX    TMP DP  RH WIND       PRES   REMARKS
DES MOINES     CLOUDY    33  27  78 CALM      29.86R
QUAD CITIES    CLOUDY    35  30  82 W7        29.87R WCI  29

......ILLINOIS........

CITY           SKY/WX    TMP DP  RH WIND       PRES   REMARKS
QUINCY         CLOUDY    34  29  82 CALM      29.87S
CHICAGO        CLOUDY    38  34  85 NW9       29.81R WCI  31




USA.gov is the U.S. government's official web portal to all federal, state and local government web resources and services.